Location: Rioux
(40.7500°S, 175.7500°E)
Time: 09:57:59
(UTC+00:00)

Cosmos 1656 Rocket - Pass Details

Date: 12 June 2024
Orbit: 793 x 846 km, 71.1° (Epoch: 20 July)

Event Time Altitude Azimuth Distance (km) Brightness Sun altitude
Exits shadow 17:46:02 35° 290° (WNW) 1,299 4.2 -20.6°
Drops below altitude 10° 17:50:44 10° 349° (NNW) 2,385 6.1 -19.7°
Sets 17:53:17 0° 357° (N) 3,301 6.9 -19.2°
